Time,TemperatureF,DewpointF,PressureIn,WindDirection,WindDirectionDegrees,WindSpeedMPH,WindSpeedGustMPH,Humidity,HourlyPrecipIn,Conditions,Clouds,dailyrainin,SoftwareType,DateUTC
2013-08-08 00:01:00,67.2,66.0,29.16,SSE,157,2.0,4.0,97,0.00,,,0.00,Rainwise IP-100,2013-08-08 04:01:00,
2013-08-08 00:06:00,67.2,66.0,29.16,SSE,157,1.0,3.0,97,0.00,,,0.00,Rainwise IP-100,2013-08-08 04:06:00,
2013-08-08 00:11:00,67.1,66.0,29.15,SSE,157,2.0,3.0,97,0.00,,,0.00,Rainwise IP-100,2013-08-08 04:11:00,
2013-08-08 00:16:00,66.9,66.0,29.16,SE,135,2.0,2.0,97,0.00,,,0.00,Rainwise IP-100,2013-08-08 04:16:00,
2013-08-08 00:21:00,66.9,66.0,29.16,SSE,157,2.0,3.0,97,0.00,,,0.00,Rainwise IP-100,2013-08-08 04:21:00,
2013-08-08 00:26:00,66.9,66.0,29.16,SE,135,1.0,4.0,97,0.00,,,0.00,Rainwise IP-100,2013-08-08 04:26:00,
2013-08-08 00:31:00,66.9,66.0,29.16,SE,135,2.0,4.0,97,0.00,,,0.00,Rainwise IP-100,2013-08-08 04:31:00,
2013-08-08 00:36:00,67.3,66.0,29.16,ESE,112,1.0,4.0,96,0.00,,,0.00,Rainwise IP-100,2013-08-08 04:36:00,
2013-08-08 00:39:00,67.4,66.0,29.16,SSE,157,2.0,4.0,96,0.00,,,0.00,Rainwise IP-100,2013-08-08 04:39:00,
2013-08-08 00:44:00,67.4,66.0,29.16,SE,135,2.0,4.0,96,0.00,,,0.00,Rainwise IP-100,2013-08-08 04:44:00,
2013-08-08 00:49:00,67.4,66.0,29.16,SE,135,2.0,3.0,95,0.00,,,0.00,Rainwise IP-100,2013-08-08 04:49:00,
2013-08-08 00:54:00,67.3,66.0,29.16,SE,135,4.0,5.0,96,0.00,,,0.00,Rainwise IP-100,2013-08-08 04:54:00,
2013-08-08 00:59:00,67.3,66.0,29.16,SE,135,2.0,4.0,95,0.00,,,0.00,Rainwise IP-100,2013-08-08 04:59:00,
2013-08-08 01:04:00,67.6,66.0,29.16,SSE,157,1.0,6.0,95,0.00,,,0.00,Rainwise IP-100,2013-08-08 05:04:00,
2013-08-08 01:09:00,67.7,66.0,29.15,SE,135,2.0,6.0,95,0.00,,,0.00,Rainwise IP-100,2013-08-08 05:09:00,
2013-08-08 01:14:00,67.7,66.0,29.15,SSW,202,6.0,7.0,94,0.00,,,0.00,Rainwise IP-100,2013-08-08 05:14:00,
2013-08-08 01:19:00,67.8,66.0,29.16,SSE,157,2.0,7.0,94,0.00,,,0.00,Rainwise IP-100,2013-08-08 05:19:00,
2013-08-08 01:24:00,67.9,66.0,29.15,SSE,157,4.0,7.0,94,0.00,,,0.00,Rainwise IP-100,2013-08-08 05:24:00,
2013-08-08 01:29:00,67.9,66.0,29.16,SSE,157,4.0,6.0,94,0.00,,,0.00,Rainwise IP-100,2013-08-08 05:29:00,
2013-08-08 01:34:00,68.1,66.0,29.16,SSE,157,4.0,6.0,93,0.00,,,0.00,Rainwise IP-100,2013-08-08 05:34:00,
2013-08-08 01:39:00,68.2,65.0,29.17,South,180,4.0,6.0,92,0.00,,,0.00,Rainwise IP-100,2013-08-08 05:39:00,
2013-08-08 01:44:00,68.2,65.0,29.17,SSE,157,4.0,6.0,91,0.00,,,0.00,Rainwise IP-100,2013-08-08 05:44:00,
2013-08-08 01:49:00,68.3,65.0,29.16,SE,135,2.0,5.0,91,0.00,,,0.00,Rainwise IP-100,2013-08-08 05:49:00,
2013-08-08 01:54:00,68.1,65.0,29.17,SSE,157,2.0,4.0,91,0.00,,,0.00,Rainwise IP-100,2013-08-08 05:54:00,
2013-08-08 01:59:00,67.9,65.0,29.17,SE,135,2.0,3.0,92,0.00,,,0.00,Rainwise IP-100,2013-08-08 05:59:00,
2013-08-08 02:04:00,67.7,65.0,29.17,SSE,157,2.0,3.0,92,0.00,,,0.00,Rainwise IP-100,2013-08-08 06:04:00,
2013-08-08 02:09:00,67.4,65.0,29.17,SSE,157,2.0,3.0,92,0.00,,,0.00,Rainwise IP-100,2013-08-08 06:09:00,
2013-08-08 02:14:00,67.3,65.0,29.17,SE,135,1.0,2.0,93,0.00,,,0.00,Rainwise IP-100,2013-08-08 06:14:00,
2013-08-08 02:19:00,67.3,65.0,29.16,SE,135,2.0,4.0,93,0.00,,,0.00,Rainwise IP-100,2013-08-08 06:19:00,
2013-08-08 02:24:00,67.4,65.0,29.16,SE,135,2.0,4.0,93,0.00,,,0.00,Rainwise IP-100,2013-08-08 06:24:00,
2013-08-08 02:29:00,67.3,65.0,29.16,SE,135,2.0,2.0,93,0.00,,,0.00,Rainwise IP-100,2013-08-08 06:29:00,
2013-08-08 02:34:00,67.2,65.0,29.15,SE,135,1.0,2.0,93,0.00,,,0.00,Rainwise IP-100,2013-08-08 06:34:00,
2013-08-08 02:39:00,67.1,65.0,29.15,SSE,157,1.0,2.0,94,0.00,,,0.00,Rainwise IP-100,2013-08-08 06:39:00,
2013-08-08 02:44:00,66.9,65.0,29.15,SSE,157,2.0,2.0,94,0.00,,,0.00,Rainwise IP-100,2013-08-08 06:44:00,
2013-08-08 02:49:00,66.8,65.0,29.15,SSE,157,1.0,3.0,95,0.00,,,0.00,Rainwise IP-100,2013-08-08 06:49:00,
2013-08-08 02:54:00,66.7,65.0,29.15,SSE,157,4.0,4.0,95,0.00,,,0.00,Rainwise IP-100,2013-08-08 06:54:00,
2013-08-08 02:59:00,66.9,66.0,29.15,SE,135,2.0,4.0,95,0.00,,,0.00,Rainwise IP-100,2013-08-08 06:59:00,
2013-08-08 03:04:00,66.9,66.0,29.15,South,180,4.0,4.0,95,0.00,,,0.00,Rainwise IP-100,2013-08-08 07:04:00,
2013-08-08 03:09:00,66.9,65.0,29.16,South,180,4.0,4.0,94,0.00,,,0.00,Rainwise IP-100,2013-08-08 07:09:00,
2013-08-08 03:14:00,67.1,65.0,29.16,SSE,157,1.0,4.0,94,0.00,,,0.00,Rainwise IP-100,2013-08-08 07:14:00,
2013-08-08 03:19:00,67.1,65.0,29.15,SSE,157,1.0,3.0,94,0.00,,,0.00,Rainwise IP-100,2013-08-08 07:19:00,
2013-08-08 03:24:00,67.0,65.0,29.16,South,180,2.0,2.0,94,0.00,,,0.00,Rainwise IP-100,2013-08-08 07:24:00,
2013-08-08 03:29:00,67.0,65.0,29.16,SSE,157,1.0,3.0,94,0.00,,,0.00,Rainwise IP-100,2013-08-08 07:29:00,
2013-08-08 03:34:00,66.9,65.0,29.16,SSE,157,2.0,2.0,94,0.00,,,0.00,Rainwise IP-100,2013-08-08 07:34:00,
2013-08-08 03:39:00,66.9,65.0,29.16,SSW,202,2.0,4.0,94,0.00,,,0.00,Rainwise IP-100,2013-08-08 07:39:00,
2013-08-08 03:44:00,66.9,65.0,29.16,SE,135,2.0,3.0,94,0.00,,,0.00,Rainwise IP-100,2013-08-08 07:44:00,
2013-08-08 03:49:00,66.9,65.0,29.16,SE,135,0.0,2.0,94,0.00,,,0.00,Rainwise IP-100,2013-08-08 07:49:00,
2013-08-08 03:52:00,66.9,65.0,29.16,SE,135,1.0,2.0,94,0.00,,,0.00,Rainwise IP-100,2013-08-08 07:52:00,
2013-08-08 03:57:00,66.9,65.0,29.15,SE,135,1.0,2.0,94,0.00,,,0.00,Rainwise IP-100,2013-08-08 07:57:00,
2013-08-08 04:02:00,66.7,65.0,29.15,SSE,157,2.0,2.0,94,0.00,,,0.00,Rainwise IP-100,2013-08-08 08:02:00,
2013-08-08 04:07:00,66.6,65.0,29.15,SSE,157,1.0,2.0,95,0.00,,,0.00,Rainwise IP-100,2013-08-08 08:07:00,
2013-08-08 04:12:00,66.4,65.0,29.15,South,180,2.0,2.0,95,0.00,,,0.00,Rainwise IP-100,2013-08-08 08:12:00,
2013-08-08 04:17:00,66.4,65.0,29.16,South,180,2.0,2.0,95,0.00,,,0.00,Rainwise IP-100,2013-08-08 08:17:00,
2013-08-08 04:22:00,66.5,65.0,29.16,SSW,202,2.0,2.0,95,0.00,,,0.00,Rainwise IP-100,2013-08-08 08:22:00,
2013-08-08 04:27:00,66.6,65.0,29.15,South,180,0.0,2.0,95,0.00,,,0.00,Rainwise IP-100,2013-08-08 08:27:00,
2013-08-08 04:32:00,66.7,65.0,29.16,SW,225,0.0,2.0,94,0.00,,,0.00,Rainwise IP-100,2013-08-08 08:32:00,
2013-08-08 04:37:00,66.7,65.0,29.16,SSE,157,0.0,0.0,94,0.00,,,0.00,Rainwise IP-100,2013-08-08 08:37:00,
2013-08-08 04:42:00,66.5,65.0,29.15,SSE,157,2.0,2.0,95,0.00,,,0.00,Rainwise IP-100,2013-08-08 08:42:00,
2013-08-08 04:47:00,66.3,65.0,29.16,SSE,157,2.0,3.0,96,0.00,,,0.00,Rainwise IP-100,2013-08-08 08:47:00,
2013-08-08 04:52:00,66.3,65.0,29.16,WNW,292,1.0,2.0,96,0.00,,,0.00,Rainwise IP-100,2013-08-08 08:52:00,
2013-08-08 04:57:00,66.4,65.0,29.17,WNW,292,0.0,2.0,96,0.00,,,0.00,Rainwise IP-100,2013-08-08 08:57:00,
2013-08-08 05:02:00,66.4,65.0,29.17,SW,225,1.0,2.0,96,0.00,,,0.00,Rainwise IP-100,2013-08-08 09:02:00,
2013-08-08 05:07:00,66.4,65.0,29.18,SW,225,0.0,2.0,96,0.00,,,0.00,Rainwise IP-100,2013-08-08 09:07:00,
2013-08-08 05:12:00,66.5,65.0,29.18,WSW,247,0.0,2.0,96,0.00,,,0.00,Rainwise IP-100,2013-08-08 09:12:00,
2013-08-08 05:17:00,66.7,66.0,29.19,WSW,247,2.0,4.0,97,0.06,,,0.01,Rainwise IP-100,2013-08-08 09:17:00,
2013-08-08 05:22:00,67.1,66.0,29.19,SW,225,2.0,4.0,96,0.06,,,0.01,Rainwise IP-100,2013-08-08 09:22:00,
2013-08-08 05:27:00,67.2,66.0,29.19,SSW,202,2.0,4.0,95,0.00,,,0.01,Rainwise IP-100,2013-08-08 09:27:00,
2013-08-08 05:32:00,67.1,66.0,29.19,SSE,157,1.0,5.0,96,0.06,,,0.02,Rainwise IP-100,2013-08-08 09:32:00,
2013-08-08 05:37:00,66.9,66.0,29.19,SE,135,2.0,4.0,96,0.06,,,0.03,Rainwise IP-100,2013-08-08 09:37:00,
2013-08-08 05:42:00,66.9,66.0,29.19,SSE,157,2.0,6.0,97,0.06,,,0.03,Rainwise IP-100,2013-08-08 09:42:00,
2013-08-08 05:47:00,66.7,66.0,29.19,SSE,157,4.0,7.0,97,0.18,,,0.05,Rainwise IP-100,2013-08-08 09:47:00,
2013-08-08 05:52:00,66.6,66.0,29.19,South,180,2.0,5.0,98,0.18,,,0.06,Rainwise IP-100,2013-08-08 09:52:00,
2013-08-08 05:57:00,66.6,66.0,29.18,South,180,9.0,9.0,98,0.18,,,0.08,Rainwise IP-100,2013-08-08 09:57:00,
2013-08-08 06:02:00,66.5,66.0,29.17,SSE,157,5.0,11.0,99,0.18,,,0.10,Rainwise IP-100,2013-08-08 10:02:00,
2013-08-08 06:07:00,66.5,66.0,29.16,SSE,157,7.0,12.0,99,0.24,,,0.12,Rainwise IP-100,2013-08-08 10:07:00,
2013-08-08 06:12:00,66.4,66.0,29.15,SSE,157,9.0,15.0,99,0.24,,,0.13,Rainwise IP-100,2013-08-08 10:12:00,
2013-08-08 06:17:00,66.4,66.0,29.15,SSE,157,6.0,11.0,99,0.12,,,0.14,Rainwise IP-100,2013-08-08 10:17:00,
2013-08-08 06:22:00,66.4,66.0,29.16,South,180,3.0,9.0,99,0.06,,,0.14,Rainwise IP-100,2013-08-08 10:22:00,
2013-08-08 06:27:00,66.4,66.0,29.17,West,270,2.0,4.0,99,0.06,,,0.15,Rainwise IP-100,2013-08-08 10:27:00,
2013-08-08 06:32:00,66.4,66.0,29.17,WSW,247,1.0,2.0,99,0.12,,,0.16,Rainwise IP-100,2013-08-08 10:32:00,
2013-08-08 06:37:00,66.4,66.0,29.18,WSW,247,0.0,2.0,99,0.12,,,0.17,Rainwise IP-100,2013-08-08 10:37:00,
2013-08-08 06:42:00,66.3,66.0,29.18,SE,135,2.0,4.0,99,0.06,,,0.17,Rainwise IP-100,2013-08-08 10:42:00,
2013-08-08 06:46:00,66.3,66.0,29.18,SE,135,2.0,4.0,99,0.06,,,0.17,Rainwise IP-100,2013-08-08 10:46:00,
2013-08-08 06:51:00,66.2,66.0,29.19,SSW,202,1.0,2.0,99,0.00,,,0.17,Rainwise IP-100,2013-08-08 10:51:00,
2013-08-08 06:56:00,66.3,66.0,29.18,SSE,157,1.0,4.0,99,0.00,,,0.17,Rainwise IP-100,2013-08-08 10:56:00,
2013-08-08 07:01:00,66.4,66.0,29.18,SSW,202,6.0,6.0,99,0.00,,,0.17,Rainwise IP-100,2013-08-08 11:01:00,
2013-08-08 07:06:00,66.6,66.0,29.18,South,180,1.0,7.0,99,0.00,,,0.17,Rainwise IP-100,2013-08-08 11:06:00,
2013-08-08 07:11:00,66.7,66.0,29.17,ESE,112,2.0,4.0,99,0.00,,,0.17,Rainwise IP-100,2013-08-08 11:11:00,
2013-08-08 07:16:00,66.9,66.0,29.17,NE,45,0.0,3.0,99,0.00,,,0.17,Rainwise IP-100,2013-08-08 11:16:00,
2013-08-08 07:21:00,67.1,66.0,29.17,NE,45,0.0,0.0,99,0.00,,,0.17,Rainwise IP-100,2013-08-08 11:21:00,
2013-08-08 07:26:00,67.2,66.0,29.17,NE,45,0.0,0.0,99,0.00,,,0.17,Rainwise IP-100,2013-08-08 11:26:00,
2013-08-08 07:31:00,67.3,66.0,29.17,ENE,67,0.0,2.0,99,0.00,,,0.17,Rainwise IP-100,2013-08-08 11:31:00,
2013-08-08 07:36:00,67.3,66.0,29.18,WNW,292,0.0,2.0,99,0.00,,,0.17,Rainwise IP-100,2013-08-08 11:36:00,
2013-08-08 07:41:00,67.1,66.0,29.18,ESE,112,0.0,2.0,99,0.00,,,0.17,Rainwise IP-100,2013-08-08 11:41:00,
2013-08-08 07:46:00,67.1,66.0,29.18,SW,225,2.0,2.0,99,0.00,,,0.17,Rainwise IP-100,2013-08-08 11:46:00,
2013-08-08 07:51:00,67.2,66.0,29.17,WSW,247,2.0,2.0,99,0.00,,,0.17,Rainwise IP-100,2013-08-08 11:51:00,
2013-08-08 07:56:00,67.4,67.0,29.17,NW,315,0.0,2.0,99,0.00,,,0.17,Rainwise IP-100,2013-08-08 11:56:00,
2013-08-08 08:01:00,67.6,67.0,29.18,NW,315,2.0,3.0,99,0.00,,,0.17,Rainwise IP-100,2013-08-08 12:01:00,
2013-08-08 08:06:00,67.5,67.0,29.18,WNW,292,2.0,3.0,99,0.00,,,0.17,Rainwise IP-100,2013-08-08 12:06:00,
2013-08-08 08:11:00,67.6,67.0,29.18,West,270,2.0,2.0,99,0.00,,,0.17,Rainwise IP-100,2013-08-08 12:11:00,
2013-08-08 08:16:00,67.7,67.0,29.18,WNW,292,1.0,2.0,99,0.00,,,0.17,Rainwise IP-100,2013-08-08 12:16:00,
2013-08-08 08:21:00,68.0,67.0,29.18,NNW,337,2.0,2.0,99,0.00,,,0.17,Rainwise IP-100,2013-08-08 12:21:00,
2013-08-08 08:23:00,68.3,67.0,29.19,NNE,22,1.0,2.0,99,0.00,,,0.17,Rainwise IP-100,2013-08-08 12:23:00,
2013-08-08 08:28:00,68.4,68.0,29.19,NNE,22,0.0,2.0,99,0.00,,,0.17,Rainwise IP-100,2013-08-08 12:28:00,
2013-08-08 08:33:00,68.7,68.0,29.19,NNE,22,0.0,0.0,99,0.00,,,0.17,Rainwise IP-100,2013-08-08 12:33:00,
2013-08-08 08:39:00,68.9,68.0,29.19,NNE,22,0.0,1.0,99,0.00,,,0.17,Rainwise IP-100,2013-08-08 12:39:00,
2013-08-08 08:44:00,69.1,68.0,29.19,NNE,22,0.0,0.0,98,0.00,,,0.17,Rainwise IP-100,2013-08-08 12:44:00,
2013-08-08 08:49:00,69.8,69.0,29.19,East,90,2.0,2.0,97,0.00,,,0.17,Rainwise IP-100,2013-08-08 12:49:00,
2013-08-08 08:54:00,70.3,69.0,29.20,SE,135,2.0,2.0,97,0.00,,,0.17,Rainwise IP-100,2013-08-08 12:54:00,
2013-08-08 08:59:00,70.7,69.0,29.20,SSW,202,0.0,3.0,94,0.00,,,0.17,Rainwise IP-100,2013-08-08 12:59:00,
2013-08-08 09:04:00,71.6,69.0,29.20,SE,135,3.0,4.0,91,0.00,,,0.17,Rainwise IP-100,2013-08-08 13:04:00,
2013-08-08 09:09:00,72.5,69.0,29.20,South,180,2.0,6.0,88,0.00,,,0.17,Rainwise IP-100,2013-08-08 13:09:00,
2013-08-08 09:14:00,72.7,67.0,29.20,SSW,202,7.0,8.0,83,0.00,,,0.17,Rainwise IP-100,2013-08-08 13:14:00,
2013-08-08 09:19:00,73.1,67.0,29.21,SW,225,3.0,9.0,83,0.00,,,0.17,Rainwise IP-100,2013-08-08 13:19:00,
2013-08-08 09:24:00,73.7,68.0,29.21,South,180,2.0,7.0,83,0.00,,,0.17,Rainwise IP-100,2013-08-08 13:24:00,
2013-08-08 09:29:00,74.2,68.0,29.21,SSE,157,6.0,10.0,80,0.00,,,0.17,Rainwise IP-100,2013-08-08 13:29:00,
2013-08-08 09:34:00,74.2,67.0,29.21,South,180,6.0,13.0,79,0.00,,,0.17,Rainwise IP-100,2013-08-08 13:34:00,
2013-08-08 09:39:00,74.5,67.0,29.21,SSE,157,5.0,7.0,77,0.00,,,0.17,Rainwise IP-100,2013-08-08 13:39:00,
2013-08-08 09:44:00,74.6,67.0,29.21,SSE,157,6.0,9.0,78,0.00,,,0.17,Rainwise IP-100,2013-08-08 13:44:00,
2013-08-08 09:49:00,74.8,68.0,29.21,SE,135,4.0,7.0,80,0.00,,,0.17,Rainwise IP-100,2013-08-08 13:49:00,
2013-08-08 09:54:00,75.2,67.0,29.21,South,180,4.0,9.0,76,0.00,,,0.17,Rainwise IP-100,2013-08-08 13:54:00,
2013-08-08 09:59:00,75.4,68.0,29.21,SSE,157,2.0,7.0,78,0.00,,,0.17,Rainwise IP-100,2013-08-08 13:59:00,
2013-08-08 10:04:00,75.4,67.0,29.21,SW,225,6.0,11.0,76,0.00,,,0.17,Rainwise IP-100,2013-08-08 14:04:00,
2013-08-08 10:09:00,75.7,67.0,29.21,SE,135,7.0,9.0,76,0.00,,,0.17,Rainwise IP-100,2013-08-08 14:09:00,
2013-08-08 10:14:00,75.7,67.0,29.20,SE,135,6.0,7.0,76,0.00,,,0.17,Rainwise IP-100,2013-08-08 14:14:00,
2013-08-08 10:19:00,75.9,67.0,29.20,SSE,157,7.0,8.0,75,0.00,,,0.17,Rainwise IP-100,2013-08-08 14:19:00,
2013-08-08 10:24:00,75.7,67.0,29.20,SSE,157,2.0,7.0,76,0.00,,,0.17,Rainwise IP-100,2013-08-08 14:24:00,
2013-08-08 10:29:00,76.2,67.0,29.20,South,180,4.0,6.0,75,0.00,,,0.17,Rainwise IP-100,2013-08-08 14:29:00,
2013-08-08 10:34:00,76.2,66.0,29.21,WSW,247,4.0,11.0,73,0.00,,,0.17,Rainwise IP-100,2013-08-08 14:34:00,
2013-08-08 10:39:00,76.5,67.0,29.21,SSE,157,6.0,11.0,74,0.00,,,0.17,Rainwise IP-100,2013-08-08 14:39:00,
2013-08-08 10:44:00,76.6,67.0,29.20,SSE,157,7.0,11.0,73,0.00,,,0.17,Rainwise IP-100,2013-08-08 14:44:00,
2013-08-08 10:49:00,76.9,68.0,29.20,South,180,7.0,8.0,74,0.00,,,0.17,Rainwise IP-100,2013-08-08 14:49:00,
2013-08-08 10:54:00,77.0,69.0,29.21,SE,135,6.0,6.0,75,0.00,,,0.17,Rainwise IP-100,2013-08-08 14:54:00,
2013-08-08 10:59:00,77.3,68.0,29.20,SE,135,7.0,10.0,74,0.00,,,0.17,Rainwise IP-100,2013-08-08 14:59:00,
2013-08-08 11:04:00,77.4,68.0,29.20,SE,135,5.0,9.0,73,0.00,,,0.17,Rainwise IP-100,2013-08-08 15:04:00,
2013-08-08 11:09:00,77.3,68.0,29.20,SW,225,2.0,7.0,74,0.00,,,0.17,Rainwise IP-100,2013-08-08 15:09:00,
2013-08-08 11:14:00,77.9,69.0,29.20,SE,135,5.0,7.0,73,0.00,,,0.17,Rainwise IP-100,2013-08-08 15:14:00,
2013-08-08 11:19:00,78.0,68.0,29.20,SW,225,1.0,9.0,71,0.00,,,0.17,Rainwise IP-100,2013-08-08 15:19:00,
2013-08-08 11:24:00,78.4,69.0,29.20,SSE,157,4.0,9.0,72,0.00,,,0.17,Rainwise IP-100,2013-08-08 15:24:00,
2013-08-08 11:29:00,78.8,68.0,29.20,SSE,157,2.0,7.0,71,0.00,,,0.17,Rainwise IP-100,2013-08-08 15:29:00,
2013-08-08 11:34:00,78.7,68.0,29.20,SE,135,5.0,7.0,71,0.00,,,0.17,Rainwise IP-100,2013-08-08 15:34:00,
2013-08-08 11:39:00,78.6,69.0,29.19,SE,135,3.0,6.0,72,0.00,,,0.17,Rainwise IP-100,2013-08-08 15:39:00,
2013-08-08 11:44:00,79.0,69.0,29.19,SSE,157,3.0,7.0,72,0.00,,,0.17,Rainwise IP-100,2013-08-08 15:44:00,
2013-08-08 11:49:00,79.3,69.0,29.19,SSE,157,2.0,6.0,72,0.00,,,0.17,Rainwise IP-100,2013-08-08 15:49:00,
2013-08-08 11:54:00,79.6,70.0,29.19,ESE,112,3.0,3.0,74,0.00,,,0.17,Rainwise IP-100,2013-08-08 15:54:00,
2013-08-08 11:59:00,79.7,69.0,29.20,SSE,157,5.0,5.0,72,0.00,,,0.17,Rainwise IP-100,2013-08-08 15:59:00,
2013-08-08 12:04:00,79.3,70.0,29.20,WSW,247,2.0,5.0,74,0.00,,,0.17,Rainwise IP-100,2013-08-08 16:04:00,
2013-08-08 12:09:00,79.9,69.0,29.20,SW,225,2.0,6.0,69,0.00,,,0.17,Rainwise IP-100,2013-08-08 16:09:00,
2013-08-08 12:14:00,79.9,69.0,29.20,WSW,247,1.0,6.0,70,0.00,,,0.17,Rainwise IP-100,2013-08-08 16:14:00,
2013-08-08 12:19:00,81.0,70.0,29.20,SE,135,6.0,6.0,70,0.00,,,0.17,Rainwise IP-100,2013-08-08 16:19:00,
2013-08-08 12:24:00,81.7,69.0,29.21,ENE,67,0.0,7.0,67,0.00,,,0.17,Rainwise IP-100,2013-08-08 16:24:00,
2013-08-08 12:29:00,81.2,69.0,29.21,ESE,112,2.0,5.0,67,0.00,,,0.17,Rainwise IP-100,2013-08-08 16:29:00,
2013-08-08 12:34:00,81.4,69.0,29.20,South,180,0.0,4.0,66,0.00,,,0.17,Rainwise IP-100,2013-08-08 16:34:00,
2013-08-08 12:39:00,81.4,69.0,29.20,South,180,0.0,0.0,66,0.00,,,0.17,Rainwise IP-100,2013-08-08 16:39:00,
2013-08-08 12:44:00,81.4,69.0,29.20,East,90,1.0,2.0,68,0.00,,,0.17,Rainwise IP-100,2013-08-08 16:44:00,
2013-08-08 12:49:00,81.9,71.0,29.20,SE,135,0.0,2.0,71,0.00,,,0.17,Rainwise IP-100,2013-08-08 16:49:00,
2013-08-08 12:54:00,82.1,71.0,29.21,ENE,67,0.0,2.0,69,0.00,,,0.17,Rainwise IP-100,2013-08-08 16:54:00,
2013-08-08 12:59:00,82.2,70.0,29.21,SE,135,1.0,3.0,67,0.00,,,0.17,Rainwise IP-100,2013-08-08 16:59:00,
2013-08-08 13:04:00,81.8,70.0,29.21,ESE,112,2.0,3.0,68,0.00,,,0.17,Rainwise IP-100,2013-08-08 17:04:00,
2013-08-08 13:09:00,81.2,71.0,29.21,SE,135,1.0,4.0,71,0.00,,,0.17,Rainwise IP-100,2013-08-08 17:09:00,
2013-08-08 13:14:00,81.7,71.0,29.21,SE,135,0.0,3.0,70,0.00,,,0.17,Rainwise IP-100,2013-08-08 17:14:00,
2013-08-08 13:19:00,81.9,71.0,29.21,NNW,337,0.0,3.0,71,0.00,,,0.17,Rainwise IP-100,2013-08-08 17:19:00,
2013-08-08 13:24:00,82.6,70.0,29.21,NNW,337,2.0,2.0,66,0.00,,,0.17,Rainwise IP-100,2013-08-08 17:24:00,
2013-08-08 13:29:00,82.8,71.0,29.21,ESE,112,0.0,3.0,67,0.00,,,0.17,Rainwise IP-100,2013-08-08 17:29:00,
2013-08-08 13:34:00,83.2,71.0,29.21,East,90,1.0,2.0,66,0.00,,,0.17,Rainwise IP-100,2013-08-08 17:34:00,
2013-08-08 13:39:00,83.8,70.0,29.21,NE,45,1.0,3.0,64,0.00,,,0.17,Rainwise IP-100,2013-08-08 17:39:00,
2013-08-08 13:44:00,84.4,72.0,29.21,SE,135,2.0,4.0,67,0.00,,,0.17,Rainwise IP-100,2013-08-08 17:44:00,
2013-08-08 13:49:00,84.1,70.0,29.21,ESE,112,2.0,3.0,63,0.00,,,0.17,Rainwise IP-100,2013-08-08 17:49:00,
2013-08-08 13:54:00,83.2,70.0,29.21,ESE,112,2.0,4.0,65,0.00,,,0.17,Rainwise IP-100,2013-08-08 17:54:00,
2013-08-08 13:59:00,82.4,70.0,29.21,SE,135,2.0,2.0,67,0.00,,,0.17,Rainwise IP-100,2013-08-08 17:59:00,
2013-08-08 14:04:00,81.8,71.0,29.21,WNW,292,2.0,2.0,70,0.00,,,0.17,Rainwise IP-100,2013-08-08 18:04:00,
2013-08-08 14:09:00,82.3,72.0,29.21,NW,315,2.0,2.0,71,0.00,,,0.17,Rainwise IP-100,2013-08-08 18:09:00,
2013-08-08 14:14:00,83.6,72.0,29.21,SSE,157,1.0,4.0,68,0.00,,,0.17,Rainwise IP-100,2013-08-08 18:14:00,
2013-08-08 14:19:00,83.2,71.0,29.21,SE,135,2.0,2.0,66,0.00,,,0.17,Rainwise IP-100,2013-08-08 18:19:00,
2013-08-08 14:24:00,82.5,71.0,29.20,SE,135,2.0,2.0,69,0.00,,,0.17,Rainwise IP-100,2013-08-08 18:24:00,
2013-08-08 14:29:00,82.7,71.0,29.20,South,180,1.0,2.0,67,0.00,,,0.17,Rainwise IP-100,2013-08-08 18:29:00,
2013-08-08 14:34:00,83.3,72.0,29.20,SE,135,2.0,5.0,69,0.00,,,0.17,Rainwise IP-100,2013-08-08 18:34:00,
2013-08-08 14:39:00,83.2,71.0,29.20,ESE,112,2.0,5.0,67,0.00,,,0.17,Rainwise IP-100,2013-08-08 18:39:00,
2013-08-08 14:44:00,83.2,71.0,29.20,SE,135,1.0,2.0,68,0.00,,,0.17,Rainwise IP-100,2013-08-08 18:44:00,
2013-08-08 14:49:00,83.3,71.0,29.20,SE,135,1.0,6.0,66,0.00,,,0.17,Rainwise IP-100,2013-08-08 18:49:00,
2013-08-08 14:54:00,84.1,72.0,29.20,East,90,2.0,3.0,67,0.00,,,0.17,Rainwise IP-100,2013-08-08 18:54:00,
2013-08-08 14:59:00,84.9,72.0,29.19,SE,135,1.0,2.0,66,0.00,,,0.17,Rainwise IP-100,2013-08-08 18:59:00,
2013-08-08 15:04:00,84.8,71.0,29.19,SE,135,1.0,6.0,65,0.00,,,0.17,Rainwise IP-100,2013-08-08 19:04:00,
2013-08-08 15:09:00,85.0,72.0,29.19,SE,135,2.0,3.0,65,0.00,,,0.17,Rainwise IP-100,2013-08-08 19:09:00,
2013-08-08 15:14:00,85.1,71.0,29.19,SE,135,2.0,6.0,64,0.00,,,0.17,Rainwise IP-100,2013-08-08 19:14:00,
2013-08-08 15:19:00,85.4,72.0,29.19,SE,135,0.0,4.0,64,0.00,,,0.17,Rainwise IP-100,2013-08-08 19:19:00,
2013-08-08 15:24:00,85.4,71.0,29.19,SSE,157,0.0,2.0,62,0.00,,,0.17,Rainwise IP-100,2013-08-08 19:24:00,
2013-08-08 15:29:00,84.6,70.0,29.18,SE,135,1.0,2.0,62,0.00,,,0.17,Rainwise IP-100,2013-08-08 19:29:00,
2013-08-08 15:34:00,83.8,70.0,29.18,ESE,112,0.0,2.0,63,0.00,,,0.17,Rainwise IP-100,2013-08-08 19:34:00,
2013-08-08 15:39:00,82.9,69.0,29.17,NNW,337,0.0,2.0,64,0.00,,,0.17,Rainwise IP-100,2013-08-08 19:39:00,
2013-08-08 15:44:00,82.7,69.0,29.17,NNW,337,0.0,1.0,65,0.00,,,0.17,Rainwise IP-100,2013-08-08 19:44:00,
2013-08-08 15:49:00,82.7,70.0,29.17,NNW,337,0.0,0.0,66,0.00,,,0.17,Rainwise IP-100,2013-08-08 19:49:00,
2013-08-08 15:54:00,81.7,70.0,29.17,NNW,337,0.0,0.0,68,0.00,,,0.17,Rainwise IP-100,2013-08-08 19:54:00,
2013-08-08 16:00:00,81.1,71.0,29.17,SSE,157,2.0,3.0,72,0.00,,,0.17,Rainwise IP-100,2013-08-08 20:00:00,
2013-08-08 16:05:00,79.8,72.0,29.17,South,180,2.0,4.0,77,0.00,,,0.17,Rainwise IP-100,2013-08-08 20:05:00,
2013-08-08 16:10:00,77.9,72.0,29.18,SSW,202,4.0,8.0,81,0.30,,,0.22,Rainwise IP-100,2013-08-08 20:10:00,
2013-08-08 16:15:00,74.9,69.0,29.17,West,270,4.0,8.0,83,1.14,,,0.38,Rainwise IP-100,2013-08-08 20:15:00,
2013-08-08 16:20:00,73.1,69.0,29.15,SSE,157,0.0,4.0,87,1.02,,,0.39,Rainwise IP-100,2013-08-08 20:20:00,
2013-08-08 16:25:00,72.5,69.0,29.13,SSE,157,0.0,2.0,90,0.18,,,0.39,Rainwise IP-100,2013-08-08 20:25:00,
2013-08-08 16:30:00,72.5,70.0,29.14,WNW,292,2.0,3.0,92,0.00,,,0.39,Rainwise IP-100,2013-08-08 20:30:00,
2013-08-08 16:35:00,72.1,69.0,29.14,WNW,292,0.0,4.0,93,0.00,,,0.39,Rainwise IP-100,2013-08-08 20:35:00,
2013-08-08 16:40:00,72.2,71.0,29.16,SSE,157,1.0,4.0,95,0.42,,,0.46,Rainwise IP-100,2013-08-08 20:40:00,
2013-08-08 16:45:00,71.9,71.0,29.16,NW,315,5.0,6.0,96,0.72,,,0.52,Rainwise IP-100,2013-08-08 20:45:00,
2013-08-08 16:50:00,71.6,70.0,29.16,WNW,292,5.0,6.0,96,0.48,,,0.52,Rainwise IP-100,2013-08-08 20:50:00,
2013-08-08 16:55:00,71.9,71.0,29.16,NW,315,5.0,9.0,97,0.00,,,0.52,Rainwise IP-100,2013-08-08 20:55:00,
2013-08-08 17:00:00,71.9,71.0,29.17,West,270,3.0,14.0,97,0.00,,,0.52,Rainwise IP-100,2013-08-08 21:00:00,
2013-08-08 17:05:00,71.6,71.0,29.17,WNW,292,7.0,19.0,97,0.36,,,0.59,Rainwise IP-100,2013-08-08 21:05:00,
2013-08-08 17:10:00,70.3,69.0,29.17,NNW,337,12.0,14.0,97,1.26,,,0.73,Rainwise IP-100,2013-08-08 21:10:00,
2013-08-08 17:16:00,68.5,68.0,29.18,NNW,337,7.0,16.0,98,1.50,,,0.87,Rainwise IP-100,2013-08-08 21:16:00,
2013-08-08 17:21:00,67.8,67.0,29.17,NNW,337,7.0,13.0,99,2.28,,,1.13,Rainwise IP-100,2013-08-08 21:21:00,
2013-08-08 17:26:00,67.5,67.0,29.16,North,360,7.0,15.0,99,2.16,,,1.23,Rainwise IP-100,2013-08-08 21:26:00,
2013-08-08 17:31:00,67.6,67.0,29.17,NW,315,7.0,11.0,99,0.78,,,1.25,Rainwise IP-100,2013-08-08 21:31:00,
2013-08-08 17:36:00,67.5,67.0,29.18,NNW,337,8.0,12.0,99,0.96,,,1.40,Rainwise IP-100,2013-08-08 21:36:00,
2013-08-08 17:41:00,67.1,66.0,29.17,NE,45,7.0,19.0,99,2.22,,,1.63,Rainwise IP-100,2013-08-08 21:41:00,
2013-08-08 17:46:00,67.2,66.0,29.18,ENE,67,5.0,12.0,99,1.50,,,1.65,Rainwise IP-100,2013-08-08 21:46:00,
2013-08-08 17:51:00,67.6,67.0,29.17,North,360,8.0,11.0,99,0.24,,,1.67,Rainwise IP-100,2013-08-08 21:51:00,
2013-08-08 17:56:00,67.9,67.0,29.17,NNE,22,6.0,12.0,99,0.18,,,1.67,Rainwise IP-100,2013-08-08 21:56:00,
2013-08-08 18:01:00,68.5,68.0,29.16,North,360,4.0,9.0,99,0.06,,,1.67,Rainwise IP-100,2013-08-08 22:01:00,
2013-08-08 18:06:00,69.1,68.0,29.15,North,360,2.0,6.0,98,0.00,,,1.67,Rainwise IP-100,2013-08-08 22:06:00,
2013-08-08 18:11:00,69.3,68.0,29.15,North,360,0.0,6.0,97,0.00,,,1.67,Rainwise IP-100,2013-08-08 22:11:00,
2013-08-08 18:16:00,69.3,68.0,29.16,NNE,22,2.0,6.0,96,0.00,,,1.67,Rainwise IP-100,2013-08-08 22:16:00,
2013-08-08 18:21:00,69.2,67.0,29.16,SE,135,0.0,4.0,95,0.00,,,1.67,Rainwise IP-100,2013-08-08 22:21:00,
2013-08-08 18:26:00,69.2,67.0,29.15,North,360,2.0,7.0,95,0.00,,,1.67,Rainwise IP-100,2013-08-08 22:26:00,
2013-08-08 18:31:00,69.2,68.0,29.15,North,360,0.0,4.0,96,0.00,,,1.67,Rainwise IP-100,2013-08-08 22:31:00,
2013-08-08 18:36:00,69.2,68.0,29.16,West,270,2.0,3.0,96,0.00,,,1.67,Rainwise IP-100,2013-08-08 22:36:00,
2013-08-08 18:41:00,69.6,68.0,29.16,North,360,1.0,5.0,96,0.00,,,1.67,Rainwise IP-100,2013-08-08 22:41:00,
2013-08-08 18:46:00,69.7,68.0,29.16,NNW,337,2.0,2.0,96,0.00,,,1.67,Rainwise IP-100,2013-08-08 22:46:00,
2013-08-08 18:51:00,69.6,68.0,29.16,NNW,337,2.0,5.0,96,0.00,,,1.67,Rainwise IP-100,2013-08-08 22:51:00,
2013-08-08 18:56:00,69.7,68.0,29.15,North,360,4.0,7.0,95,0.00,,,1.67,Rainwise IP-100,2013-08-08 22:56:00,
2013-08-08 19:01:00,70.2,69.0,29.16,NNW,337,2.0,5.0,96,0.00,,,1.67,Rainwise IP-100,2013-08-08 23:01:00,
2013-08-08 19:06:00,70.1,68.0,29.16,North,360,1.0,4.0,94,0.00,,,1.67,Rainwise IP-100,2013-08-08 23:06:00,
2013-08-08 19:11:00,70.1,68.0,29.16,NE,45,0.0,3.0,95,0.00,,,1.67,Rainwise IP-100,2013-08-08 23:11:00,
2013-08-08 19:16:00,70.2,69.0,29.16,SW,225,1.0,2.0,96,0.00,,,1.67,Rainwise IP-100,2013-08-08 23:16:00,
2013-08-08 19:21:00,70.1,69.0,29.16,South,180,4.0,6.0,96,0.00,,,1.67,Rainwise IP-100,2013-08-08 23:21:00,
2013-08-08 19:26:00,70.0,69.0,29.16,SSE,157,1.0,8.0,96,0.00,,,1.67,Rainwise IP-100,2013-08-08 23:26:00,
2013-08-08 19:31:00,69.9,69.0,29.16,SE,135,8.0,8.0,97,0.54,,,1.78,Rainwise IP-100,2013-08-08 23:31:00,
2013-08-08 19:36:00,69.8,69.0,29.16,WSW,247,2.0,8.0,98,0.72,,,1.79,Rainwise IP-100,2013-08-08 23:36:00,
2013-08-08 19:41:00,69.7,69.0,29.15,ENE,67,1.0,2.0,98,0.18,,,1.79,Rainwise IP-100,2013-08-08 23:41:00,
2013-08-08 19:46:00,69.7,69.0,29.15,NNW,337,1.0,3.0,99,0.00,,,1.79,Rainwise IP-100,2013-08-08 23:46:00,
2013-08-08 19:51:00,69.5,69.0,29.15,NNW,337,0.0,3.0,99,0.00,,,1.79,Rainwise IP-100,2013-08-08 23:51:00,
2013-08-08 19:56:00,69.4,69.0,29.15,NW,315,2.0,3.0,99,0.00,,,1.79,Rainwise IP-100,2013-08-08 23:56:00,
2013-08-08 20:01:00,69.3,69.0,29.15,West,270,2.0,3.0,99,0.00,,,1.79,Rainwise IP-100,2013-08-09 00:01:00,
2013-08-08 20:06:00,69.3,69.0,29.16,NW,315,2.0,4.0,99,0.00,,,1.79,Rainwise IP-100,2013-08-09 00:06:00,
2013-08-08 20:11:00,69.3,69.0,29.16,SW,225,2.0,2.0,99,0.00,,,1.79,Rainwise IP-100,2013-08-09 00:11:00,
2013-08-08 20:16:00,69.3,69.0,29.17,East,90,1.0,2.0,99,0.00,,,1.79,Rainwise IP-100,2013-08-09 00:16:00,
2013-08-08 20:21:00,69.3,69.0,29.17,SE,135,1.0,2.0,99,0.00,,,1.79,Rainwise IP-100,2013-08-09 00:21:00,
2013-08-08 20:26:00,69.1,68.0,29.17,SSW,202,1.0,2.0,99,0.00,,,1.79,Rainwise IP-100,2013-08-09 00:26:00,
2013-08-08 20:31:00,68.9,68.0,29.17,West,270,1.0,2.0,99,0.00,,,1.79,Rainwise IP-100,2013-08-09 00:31:00,
2013-08-08 20:36:00,68.9,68.0,29.17,WSW,247,1.0,2.0,99,0.00,,,1.79,Rainwise IP-100,2013-08-09 00:36:00,
2013-08-08 20:41:00,68.9,68.0,29.17,WNW,292,2.0,4.0,99,0.00,,,1.79,Rainwise IP-100,2013-08-09 00:41:00,
2013-08-08 20:46:00,68.9,68.0,29.17,West,270,0.0,4.0,99,0.00,,,1.79,Rainwise IP-100,2013-08-09 00:46:00,
2013-08-08 20:51:00,68.9,68.0,29.18,SSW,202,0.0,2.0,99,0.00,,,1.79,Rainwise IP-100,2013-08-09 00:51:00,
2013-08-08 20:57:00,68.9,68.0,29.18,West,270,2.0,2.0,99,0.00,,,1.79,Rainwise IP-100,2013-08-09 00:57:00,
2013-08-08 21:02:00,69.0,68.0,29.17,NNW,337,2.0,2.0,99,0.00,,,1.79,Rainwise IP-100,2013-08-09 01:02:00,
2013-08-08 21:07:00,68.9,68.0,29.17,NNW,337,2.0,5.0,99,0.00,,,1.79,Rainwise IP-100,2013-08-09 01:07:00,
2013-08-08 21:12:00,68.6,68.0,29.17,NNW,337,2.0,5.0,99,0.00,,,1.79,Rainwise IP-100,2013-08-09 01:12:00,
2013-08-08 21:17:00,68.6,68.0,29.17,SSE,157,2.0,2.0,99,0.00,,,1.79,Rainwise IP-100,2013-08-09 01:17:00,
2013-08-08 21:22:00,68.4,68.0,29.17,WSW,247,2.0,2.0,99,0.00,,,1.79,Rainwise IP-100,2013-08-09 01:22:00,
2013-08-08 21:27:00,68.3,67.0,29.17,West,270,2.0,2.0,99,0.00,,,1.79,Rainwise IP-100,2013-08-09 01:27:00,
2013-08-08 21:32:00,68.2,67.0,29.17,SW,225,2.0,2.0,99,0.00,,,1.79,Rainwise IP-100,2013-08-09 01:32:00,
2013-08-08 21:37:00,68.1,67.0,29.17,West,270,1.0,2.0,99,0.00,,,1.79,Rainwise IP-100,2013-08-09 01:37:00,
2013-08-08 21:42:00,67.9,67.0,29.17,West,270,0.0,2.0,99,0.00,,,1.79,Rainwise IP-100,2013-08-09 01:42:00,
2013-08-08 21:47:00,67.9,67.0,29.17,West,270,1.0,1.0,99,0.00,,,1.79,Rainwise IP-100,2013-08-09 01:47:00,
2013-08-08 21:52:00,67.9,67.0,29.17,SW,225,1.0,2.0,99,0.00,,,1.79,Rainwise IP-100,2013-08-09 01:52:00,
2013-08-08 21:57:00,67.9,67.0,29.17,SSW,202,1.0,2.0,99,0.00,,,1.79,Rainwise IP-100,2013-08-09 01:57:00,
2013-08-08 22:02:00,67.9,67.0,29.16,WSW,247,2.0,2.0,99,0.00,,,1.79,Rainwise IP-100,2013-08-09 02:02:00,
2013-08-08 22:07:00,67.9,67.0,29.16,SW,225,1.0,2.0,99,0.00,,,1.79,Rainwise IP-100,2013-08-09 02:07:00,
2013-08-08 22:12:00,68.0,67.0,29.16,SW,225,2.0,4.0,99,0.00,,,1.79,Rainwise IP-100,2013-08-09 02:12:00,
2013-08-08 22:17:00,68.0,67.0,29.16,SW,225,2.0,3.0,99,0.00,,,1.79,Rainwise IP-100,2013-08-09 02:17:00,
2013-08-08 22:22:00,67.9,67.0,29.16,SSW,202,2.0,3.0,99,0.00,,,1.79,Rainwise IP-100,2013-08-09 02:22:00,
2013-08-08 22:27:00,67.9,67.0,29.15,SSW,202,1.0,2.0,99,0.00,,,1.79,Rainwise IP-100,2013-08-09 02:27:00,
2013-08-08 22:32:00,68.3,67.0,29.16,SW,225,2.0,4.0,99,0.00,,,1.79,Rainwise IP-100,2013-08-09 02:32:00,
2013-08-08 22:37:00,68.3,67.0,29.16,SSW,202,2.0,2.0,99,0.00,,,1.79,Rainwise IP-100,2013-08-09 02:37:00,
2013-08-08 22:42:00,68.7,68.0,29.16,SW,225,1.0,4.0,99,0.00,,,1.79,Rainwise IP-100,2013-08-09 02:42:00,
2013-08-08 22:47:00,68.8,68.0,29.16,SSW,202,0.0,2.0,99,0.00,,,1.79,Rainwise IP-100,2013-08-09 02:47:00,
2013-08-08 22:52:00,68.9,68.0,29.16,South,180,2.0,3.0,99,0.00,,,1.79,Rainwise IP-100,2013-08-09 02:52:00,
2013-08-08 22:57:00,69.2,69.0,29.16,SSE,157,1.0,2.0,99,0.00,,,1.79,Rainwise IP-100,2013-08-09 02:57:00,
2013-08-08 23:02:00,69.3,69.0,29.16,South,180,0.0,3.0,99,0.00,,,1.79,Rainwise IP-100,2013-08-09 03:02:00,
2013-08-08 23:07:00,69.4,69.0,29.17,WSW,247,1.0,2.0,99,0.00,,,1.79,Rainwise IP-100,2013-08-09 03:07:00,
2013-08-08 23:12:00,69.5,69.0,29.17,WSW,247,0.0,1.0,99,0.12,,,1.81,Rainwise IP-100,2013-08-09 03:12:00,
2013-08-08 23:17:00,69.5,69.0,29.16,East,90,0.0,2.0,99,0.42,,,1.86,Rainwise IP-100,2013-08-09 03:17:00,
2013-08-08 23:22:00,69.5,69.0,29.16,East,90,0.0,2.0,99,0.42,,,1.88,Rainwise IP-100,2013-08-09 03:22:00,
2013-08-08 23:27:00,69.3,69.0,29.16,SE,135,1.0,2.0,99,0.18,,,1.89,Rainwise IP-100,2013-08-09 03:27:00,
2013-08-08 23:32:00,69.2,69.0,29.15,ESE,112,2.0,2.0,99,0.12,,,1.90,Rainwise IP-100,2013-08-09 03:32:00,
2013-08-08 23:37:00,69.1,68.0,29.15,ESE,112,0.0,2.0,99,0.12,,,1.91,Rainwise IP-100,2013-08-09 03:37:00,
2013-08-08 23:42:00,68.9,68.0,29.15,SSE,157,1.0,3.0,99,0.06,,,1.91,Rainwise IP-100,2013-08-09 03:42:00,
2013-08-08 23:47:00,69.0,68.0,29.15,SSE,157,1.0,3.0,99,0.00,,,1.91,Rainwise IP-100,2013-08-09 03:47:00,
2013-08-08 23:52:00,69.1,68.0,29.15,SSW,202,2.0,2.0,99,0.00,,,1.91,Rainwise IP-100,2013-08-09 03:52:00,
2013-08-08 23:57:00,69.2,69.0,29.15,WSW,247,1.0,2.0,99,0.00,,,1.91,Rainwise IP-100,2013-08-09 03:57:00,